This is the latest recevied weather packets stored in our database for station/object KF7U. If no packets are shown the sender has not sent any weather packets the latest 10 day(s).
| Time | Temp. | Humidity | Pressure | Rain* | Wind** | Luminosity | Snow |
|---|---|---|---|---|---|---|---|
| 1778082755 | 21.67° C | 34% | 1014.6 hPa | 0 mm | - | 651 W/m² | - |
| 1778082455 | 21.67° C | 34% | 1014.6 hPa | 0 mm | - | 626 W/m² | - |
| 1778082155 | 21.67° C | 34% | 1014.6 hPa | 0 mm | - | 603 W/m² | - |
| 1778081855 | 21.67° C | 34% | 1014.6 hPa | 0 mm | - | 579 W/m² | - |
| 1778081554 | 21.11° C | 36% | 1014.6 hPa | 0 mm | - | 554 W/m² | - |
| 1778081256 | 21.11° C | 36% | 1014.6 hPa | 0 mm | - | 530 W/m² | - |
| 1778080955 | 21.11° C | 36% | 1014.9 hPa | 0 mm | - | 504 W/m² | - |
| 1778080655 | 21.11° C | 36% | 1014.9 hPa | 0 mm | - | 479 W/m² | - |
| 1778080355 | 20.56° C | 36% | 1014.6 hPa | 0 mm | - | 456 W/m² | - |
| 1778080056 | 20.56° C | 37% | 1014.6 hPa | 0 mm | - | 460 W/m² | - |
| 1778079756 | 20° C | 37% | 1014.6 hPa | 0 mm | - | 434 W/m² | - |
| 1778079454 | 20° C | 39% | 1014.6 hPa | 0 mm | - | 409 W/m² | - |
| 1778079155 | 19.44° C | 40% | 1014.6 hPa | 0 mm | - | 383 W/m² | - |
| 1778078855 | 18.89° C | 40% | 1014.6 hPa | 0 mm | - | 359 W/m² | - |
| 1778078555 | 18.33° C | 42% | 1014.6 hPa | 0 mm | - | 274 W/m² | - |
| 1778078256 | 18.33° C | 42% | 1014.6 hPa | 0 mm | - | 267 W/m² | - |
| 1778077955 | 17.78° C | 42% | 1014.6 hPa | 0 mm | - | 271 W/m² | - |
| 1778077655 | 17.78° C | 43% | 1014.6 hPa | 0 mm | - | 226 W/m² | - |
| 1778077354 | 17.22° C | 44% | 1014.2 hPa | 0 mm | - | 192 W/m² | - |
| 1778077055 | 17.22° C | 46% | 1014.2 hPa | 0 mm | - | 206 W/m² | - |
| 1778076756 | 16.67° C | 47% | 1014.2 hPa | 0 mm | - | 129 W/m² | - |
| 1778076455 | 16.11° C | 49% | 1014.2 hPa | 0 mm | - | 98 W/m² | - |
| 1778076155 | 16.11° C | 51% | 1014.2 hPa | 0 mm | - | 72 W/m² | - |
| 1778075855 | 15° C | 55% | 1014.2 hPa | 0 mm | - | 92 W/m² | - |
| 1778075555 | 14.44° C | 59% | 1014.2 hPa | 0 mm | - | 84 W/m² | - |
* Rain latest hour (hover to see other rain measurements)
** Current wind speed in m/s (hover to see current wind gust speed)